FW8443 Weather Reports


time (UTC)temp
F
wind
direction
speed
knots
gust
knots
rain 1hr
in
rain 24hr
in
rain mn
in
humidity
%
barometer
mb
20260502163032 53 188 2.6 7.8 0.00 0.04 0.04 75 1013.8
20260502161534 53 159 2.6 7.0 0.00 0.04 0.04 75 1013.8
20260502151537 53 167 2.6 6.1 0.00 0.04 0.04 75 1014.3
20260502123043 48 0 0.0 0.0 0.02 0.04 0.04 92 1014.2
20260502121532 48 0 0.0 0.0 0.03 0.04 0.04 93 1015.0
20260502114530 47 0 0.0 0.0 0.01 0.02 0.02 92 1015.4
20260502113035 47 0 0.0 1.7 0.01 0.02 0.02 92 1015.3
20260502111544 47 0 0.0 0.9 0.00 0.01 0.01 92 1015.5
20260502110035 47 0 0.0 1.7 0.00 0.01 0.01 91 1015.2
20260502104534 46 0 0.0 0.0 0.01 0.01 0.01 91 1015.1
20260502103032 46 0 0.0 0.0 0.01 0.01 0.01 91 1014.4
20260502101530 46 0 0.0 0.0 0.01 0.01 0.01 90 1014.3
20260502091532 47 0 0.0 1.7 0.00 0.00 0.00 87 1013.9
20260502070037 48 0 0.0 0.9 0.00 0.00 0.00 80 1014.2
20260502064534 48 103 0.0 1.7 0.00 0.00 0.00 79 1014.2
20260502063030 48 0 0.0 0.0 0.00 0.00 0.00 78 1014.1
20260502061530 49 0 0.0 0.0 0.00 0.00 0.00 78 1014.2
20260502060031 49 0 0.0 2.6 0.00 0.00 0.00 76 1014.3
20260502054534 49 136 0.9 3.5 0.00 0.00 0.00 76 1014.2
20260502053047 50 0 0.0 2.6 0.00 0.00 0.00 75 1014.4
20260502051534 50 130 0.9 3.5 0.00 0.00 0.00 73 1014.4
20260502050035 51 188 0.9 4.3 0.00 0.00 0.00 73 1014.6
20260502044535 51 106 0.9 3.5 0.00 0.00 0.00 73 1014.5
20260502043036 51 145 0.0 5.2 0.00 0.00 0.00 73 1014.5
20260502041538 51 161 0.9 2.6 0.00 0.00 0.00 74 1014.5
20260502040034 51 140 0.0 5.2 0.00 0.00 0.00 73 1014.5
20260502034530 51 0 0.9 5.2 0.00 0.00 0.00 73 1014.5
20260502033040 50 126 0.9 4.3 0.00 0.00 0.00 73 1014.6
20260502031533 51 159 0.9 3.5 0.00 0.00 0.00 72 1014.6
20260502030037 51 145 0.9 5.2 0.00 0.00 0.00 71 1014.6
20260502024532 51 136 1.7 7.0 0.00 0.00 0.00 71 1014.8
20260502023036 52 144 1.7 6.1 0.00 0.00 0.00 70 1014.7
20260502021534 52 0 0.9 7.0 0.00 0.00 0.00 70 1014.7
20260502020038 52 215 2.6 7.0 0.00 0.00 0.00 68 1014.8
20260502014529 52 161 0.9 6.1 0.00 0.00 0.00 68 1014.7
20260502013035 53 170 1.7 6.1 0.00 0.00 0.00 66 1014.6
20260502011531 53 136 3.5 10.4 0.00 0.00 0.00 65 1014.5
20260502010033 54 139 1.7 10.4 0.00 0.00 0.00 62 1014.4
20260502004530 54 140 1.7 7.8 0.00 0.00 0.00 58 1014.2
20260502003031 54 114 2.6 8.7 0.00 0.00 0.00 56 1014.0
20260502001532 54 0 0.0 0.9 0.00 0.00 0.00 57 1013.7
20260502000034 56 0 0.9 4.3 0.00 0.00 0.00 53 1013.3
20260501234537 56 154 0.0 3.5 0.00 0.00 0.00 53 1013.1
20260501233032 58 0 0.0 0.9 0.00 0.00 0.00 47 1012.8
20260501231531 59 0 0.0 1.7 0.00 0.00 0.00 43 1012.7
20260501230032 60 0 0.0 2.6 0.00 0.00 0.00 42 1012.7
20260501224545 61 0 0.0 2.6 0.00 0.00 0.00 40 1012.6
20260501223038 61 0 0.0 4.3 0.00 0.00 0.00 43 1012.5
20260501221550 61 279 0.0 3.5 0.00 0.00 0.00 41 1012.4
20260501220033 61 296 0.9 7.0 0.00 0.00 0.00 41 1012.5
20260501214535 61 333 2.6 8.7 0.00 0.00 0.00 42 1012.6
20260501213035 61 272 0.0 9.6 0.00 0.00 0.00 44 1012.6
20260501211542 62 0 0.9 7.8 0.00 0.00 0.00 42 1012.4
20260501210032 61 232 0.9 4.3 0.00 0.00 0.00 40 1012.4
20260501204535 61 234 1.7 7.0 0.00 0.00 0.00 42 1012.4
20260501203036 61 284 0.9 7.8 0.00 0.00 0.00 44 1012.4
20260501201535 61 290 1.7 9.6 0.00 0.00 0.00 42 1012.2
20260501200034 61 295 1.7 7.8 0.00 0.00 0.00 40 1012.3
20260501194530 62 306 0.9 5.2 0.00 0.00 0.00 43 1012.3
20260501193044 62 263 1.7 6.1 0.00 0.00 0.00 41 1012.2
20260501191535 62 186 2.6 9.6 0.00 0.00 0.00 41 1012.8
20260501190035 61 269 1.7 11.3 0.00 0.00 0.00 41 1012.9
20260501184536 61 254 1.7 8.7 0.00 0.00 0.00 43 1013.1
20260501183032 61 331 2.6 7.8 0.00 0.00 0.00 43 1013.1
20260501181536 61 328 6.1 9.6 0.00 0.00 0.00 42 1013.3
20260501180038 60 299 1.7 9.6 0.00 0.00 0.00 41 1013.2
20260501174539 59 264 3.5 8.7 0.00 0.00 0.00 44 1013.1
20260501173032 58 331 3.5 9.6 0.00 0.00 0.00 46 1013.2
20260501171532 57 312 2.6 7.0 0.00 0.00 0.00 52 1013.5